Weather reports worldwide

Advertisment
Javea, Spain (8370): temperature & dewpoint: 16.09.2018 23:00:00 - 22.09.2018 23:00:00 (CEST)Javea, Spain (8370): wind speed & gusts: 16.09.2018 23:00:00 - 22.09.2018 23:00:00 (CEST)Javea, Spain (8370): wind direction: 16.09.2018 23:00:00 - 22.09.2018 23:00:00 (CEST)Javea, Spain (8370): reduced air pressure: 16.09.2018 23:00:00 - 22.09.2018 23:00:00 (CEST)Javea, Spain (8370): visibility: 16.09.2018 23:00:00 - 22.09.2018 23:00:00 (CEST)Javea, Spain (8370): sunshine duration: 16.09.2018 23:00:00 - 22.09.2018 23:00:00 (CEST)Javea, Spain (8370): precipitation: 16.09.2018 23:00:00 - 22.09.2018 23:00:00 (CEST)
Date & Time tt [°C] td [°C] ff [km/h] ff [kn] fx [km/h] fx [kn] dd ppp [hPa] vv [km] sd [min] rr [mm]
22.09.2018 23:00:00 - - - - - - - - - - -
22.09.2018 22:00:00 - - - - - - - - - - -
22.09.2018 21:00:00 24,6 19,6 5 3 11 6 SSW 1021,4 20 0 0,0
22.09.2018 20:00:00 25,6 19,0 5 3 20 11 S 1021,0 20 14 -
22.09.2018 19:00:00 27,3 18,6 6 4 25 14 SSW 1020,9 20 52 0,0
22.09.2018 18:00:00 28,6 18,7 11 6 33 18 SW 1020,8 20 60 0,0
22.09.2018 17:00:00 29,2 19,5 16 8 32 17 SSW 1021,2 20 60 0,0
22.09.2018 16:00:00 29,6 19,3 16 9 33 18 SSW 1021,8 20 60 0,0
22.09.2018 15:00:00 30,2 19,6 15 8 29 15 S 1022,2 20 60 0,0
22.09.2018 14:00:00 30,4 20,3 13 7 21 12 SSW 1022,6 20 60 -
22.09.2018 13:00:00 30,8 20,4 10 5 18 10 S 1023,0 20 60 0,0
22.09.2018 12:00:00 30,3 21,1 4 2 17 9 NNW 1023,1 20 60 0,0
22.09.2018 11:00:00 28,3 19,3 5 3 10 5 SW 1023,0 20 60 0,0
22.09.2018 10:00:00 24,9 20,2 6 3 10 5 W 1022,6 20 60 0,0
22.09.2018 09:00:00 20,6 18,0 7 4 12 6 WSW 1022,2 - 31 0,0
22.09.2018 08:00:00 - - - - - - - - - - -
22.09.2018 07:00:00 - - - - - - - - - - -
22.09.2018 06:00:00 - - - - - - - - - - -
22.09.2018 05:00:00 - - - - - - - - - - -
22.09.2018 04:00:00 - - - - - - - - - - -
22.09.2018 03:00:00 - - - - - - - - - - -
22.09.2018 02:00:00 - - - - - - - - - - -
22.09.2018 01:00:00 - - - - - - - - - - -
22.09.2018 00:00:00 - - - - - - - - - - -
21.09.2018 23:00:00 24,2 21,5 7 4 16 9 SW 1019,5 20 0 0,0
21.09.2018 22:00:00 24,4 21,3 4 2 11 6 WSW 1019,1 20 0 0,0
21.09.2018 21:00:00 24,8 21,1 6 3 14 7 SW 1018,3 20 0 0,0
21.09.2018 20:00:00 25,7 20,5 4 2 19 10 W 1017,6 20 16 -
21.09.2018 19:00:00 28,1 20,7 4 2 23 13 SW 1017,3 20 36 0,0
21.09.2018 18:00:00 29,8 20,1 10 6 28 15 SSW 1016,7 20 60 0,0
21.09.2018 17:00:00 30,7 19,7 11 6 29 16 SSW 1017,0 20 60 0,0
21.09.2018 16:00:00 31,5 18,8 11 6 24 13 SSW 1017,2 20 60 0,0
21.09.2018 15:00:00 - - - - - - - - - - -
21.09.2018 14:00:00 - - - - - - - - - - -
21.09.2018 13:00:00 - - - - - - - - - - -
21.09.2018 12:00:00 - - - - - - - - - - -
21.09.2018 11:00:00 27,7 18,4 9 5 17 9 SSW 1018,3 20 60 0,0
21.09.2018 10:00:00 24,5 17,5 5 3 11 6 W 1018,1 20 60 0,0
21.09.2018 09:00:00 - - - - - - - - - - -
21.09.2018 08:00:00 - - - - - - - - - - -
21.09.2018 07:00:00 - - - - - - - - - - -
21.09.2018 06:00:00 - - - - - - - - - - -
21.09.2018 05:00:00 - - - - - - - - - - -
21.09.2018 04:00:00 - - - - - - - - - - -
21.09.2018 03:00:00 - - - - - - - - - - -
21.09.2018 02:00:00 - - - - - - - - - - -
21.09.2018 01:00:00 - - - - - - - - - - -
21.09.2018 00:00:00 - - - - - - - - - - -
20.09.2018 23:00:00 - - - - - - - - - - -
20.09.2018 22:00:00 23,0 19,0 4 2 11 6 WSW 1018,3 20 0 0,0
20.09.2018 21:00:00 23,7 18,8 4 2 8 4 W 1018,0 20 0 0,0
20.09.2018 20:00:00 - - - - - - - - - - -
20.09.2018 19:00:00 27,6 18,6 8 4 19 10 SSW 1018,2 20 36 0,0
20.09.2018 18:00:00 29,4 18,2 10 6 19 10 SSW 1018,2 20 60 0,0
20.09.2018 17:00:00 30,6 18,3 8 4 19 10 S 1018,6 20 60 0,0
20.09.2018 16:00:00 30,6 17,3 10 5 20 11 SSE 1019,0 20 60 0,0
20.09.2018 15:00:00 29,9 19,0 8 5 18 10 SE 1019,6 20 60 0,0
20.09.2018 14:00:00 28,2 19,4 11 6 20 11 E 1020,3 18 60 -
20.09.2018 13:00:00 27,9 19,4 9 5 19 10 E 1020,7 20 60 0,0
20.09.2018 12:00:00 28,2 19,7 8 5 15 8 ENE 1020,8 20 60 0,0
20.09.2018 11:00:00 27,6 19,9 2 1 12 6 E 1021,0 20 60 0,0
20.09.2018 10:00:00 24,3 19,3 8 5 12 7 W 1020,8 20 60 0,0
20.09.2018 09:00:00 - - - - - - - - - - -
20.09.2018 08:00:00 - - - - - - - - - - -
20.09.2018 07:00:00 - - - - - - - - - - -
20.09.2018 06:00:00 - - - - - - - - - - -
20.09.2018 05:00:00 - - - - - - - - - - -
20.09.2018 04:00:00 - - - - - - - - - - -
20.09.2018 03:00:00 - - - - - - - - - - -
20.09.2018 02:00:00 - - - - - - - - - - -
20.09.2018 01:00:00 - - - - - - - - - - -
20.09.2018 00:00:00 - - - - - - - - - - -
19.09.2018 23:00:00 - - - - - - - - - - -
19.09.2018 22:00:00 - - - - - - - - - - -
19.09.2018 21:00:00 - - - - - - - - - - -
19.09.2018 20:00:00 25,0 19,8 8 5 14 8 N 1020,1 20 19 -
19.09.2018 19:00:00 26,3 19,4 10 5 19 10 NNE 1020,0 20 51 0,0
19.09.2018 18:00:00 27,3 20,1 12 6 22 12 NNE 1020,0 17 52 0,0
19.09.2018 17:00:00 28,3 20,1 15 8 28 15 NNE 1020,4 20 60 0,0
19.09.2018 16:00:00 28,8 20,5 16 9 31 17 N 1020,2 20 53 0,0
19.09.2018 15:00:00 28,7 20,2 19 10 31 17 N 1020,6 20 60 0,0
19.09.2018 14:00:00 28,8 20,3 18 10 32 18 NNW 1020,9 20 60 -
19.09.2018 13:00:00 28,7 19,6 16 9 32 18 NNW 1021,1 20 59 0,0
19.09.2018 12:00:00 27,8 20,4 16 9 31 17 NNW 1021,2 20 60 0,0
19.09.2018 11:00:00 26,7 19,6 16 8 27 14 NNW 1020,8 20 60 0,0
19.09.2018 10:00:00 25,4 19,6 14 8 25 13 NW 1020,2 20 60 0,0
19.09.2018 09:00:00 - - - - - - - - - - -
19.09.2018 08:00:00 - - - - - - - - - - -
19.09.2018 07:00:00 - - - - - - - - - - -
19.09.2018 06:00:00 - - - - - - - - - - -
19.09.2018 05:00:00 - - - - - - - - - - -
19.09.2018 04:00:00 - - - - - - - - - - -
19.09.2018 03:00:00 - - - - - - - - - - -
19.09.2018 02:00:00 - - - - - - - - - - -
19.09.2018 01:00:00 - - - - - - - - - - -
19.09.2018 00:00:00 - - - - - - - - - - -
18.09.2018 23:00:00 - - - - - - - - - - -
18.09.2018 22:00:00 - - - - - - - - - - -
18.09.2018 21:00:00 - - - - - - - - - - -
18.09.2018 20:00:00 - - - - - - - - - - -
18.09.2018 19:00:00 24,9 19,5 7 4 14 7 NNE 1016,5 20 0 0,0
18.09.2018 18:00:00 25,7 19,1 9 5 18 10 ENE 1016,0 20 41 0,0
18.09.2018 17:00:00 25,7 19,1 9 5 19 10 NE 1016,3 20 8 0,0
18.09.2018 16:00:00 26,1 19,0 13 7 29 16 NNE 1016,2 20 54 0,0
18.09.2018 15:00:00 27,8 19,8 16 9 30 16 NNE 1016,6 20 60 0,0
18.09.2018 14:00:00 28,6 19,8 16 9 29 15 N 1016,9 20 60 -
18.09.2018 13:00:00 - - - - - - - - - - -
18.09.2018 12:00:00 27,3 20,4 15 8 31 17 N 1017,5 20 59 0,0
18.09.2018 11:00:00 26,0 19,6 16 9 29 16 NNW 1017,6 20 60 0,0
18.09.2018 10:00:00 24,2 20,3 16 9 26 14 NNW 1017,1 20 54 0,0
18.09.2018 09:00:00 - - - - - - - - - - -
18.09.2018 08:00:00 - - - - - - - - - - -
18.09.2018 07:00:00 - - - - - - - - - - -
18.09.2018 06:00:00 - - - - - - - - - - -
18.09.2018 05:00:00 - - - - - - - - - - -
18.09.2018 04:00:00 - - - - - - - - - - -
18.09.2018 03:00:00 - - - - - - - - - - -
18.09.2018 02:00:00 - - - - - - - - - - -
18.09.2018 01:00:00 - - - - - - - - - - -
18.09.2018 00:00:00 - - - - - - - - - - -
17.09.2018 23:00:00 - - - - - - - - - - -
17.09.2018 22:00:00 - - - - - - - - - - -
17.09.2018 21:00:00 - - - - - - - - - - -
17.09.2018 20:00:00 25,6 21,1 6 3 14 8 ENE 1016,4 20 13 -
17.09.2018 19:00:00 26,9 20,7 9 5 18 10 ENE 1016,7 20 60 0,0
17.09.2018 18:00:00 27,6 20,2 10 5 22 12 ENE 1016,8 20 60 0,0
17.09.2018 17:00:00 28,0 20,3 14 7 21 12 NNE 1017,0 20 60 0,0
17.09.2018 16:00:00 29,1 19,7 11 6 20 11 NNE 1017,6 20 60 0,0
17.09.2018 15:00:00 29,2 20,1 13 7 23 12 N 1018,3 20 60 0,0
17.09.2018 14:00:00 28,8 20,3 14 8 27 14 N 1018,8 20 59 -
17.09.2018 13:00:00 28,2 20,0 17 9 27 15 NNW 1019,4 20 60 0,0
17.09.2018 12:00:00 28,4 20,7 13 7 29 15 NW 1020,1 20 60 0,0
17.09.2018 11:00:00 26,3 20,9 15 8 27 15 NW 1019,6 20 25 0,0
17.09.2018 10:00:00 - - - - - - - - - - -
17.09.2018 09:00:00 - - - - - - - - - - -
17.09.2018 08:00:00 - - - - - - - - - - -
17.09.2018 07:00:00 - - - - - - - - - - -
17.09.2018 06:00:00 - - - - - - - - - - -
17.09.2018 05:00:00 - - - - - - - - - - -
17.09.2018 04:00:00 - - - - - - - - - - -
17.09.2018 03:00:00 - - - - - - - - - - -
17.09.2018 02:00:00 - - - - - - - - - - -
17.09.2018 01:00:00 - - - - - - - - - - -
17.09.2018 00:00:00 - - - - - - - - - - -
16.09.2018 23:00:00 - - - - - - - - - - -

tt = temperature
td = dewpoint
ff = wind speed
fx = gusts
dd = wind direction
ppp = reduced air pressure
vv = visibility
sd = sunshine duration
rr = precipitation

Next stations